Time,TemperatureF,DewpointF,PressureIn,WindDirection,WindDirectionDegrees,WindSpeedMPH,WindSpeedGustMPH,Humidity,HourlyPrecipIn,Conditions,Clouds,dailyrainin,SoftwareType,DateUTC
2013-02-12 00:02:00,21.0,-99.9,-100.00,SSW,204,8.0,-999.0,0,-99.99,,,-99.99,,2013-02-12 06:02:00,
2013-02-12 00:12:00,20.0,-99.9,-100.00,SW,218,7.0,-999.0,0,-99.99,,,-99.99,,2013-02-12 06:12:00,
2013-02-12 00:22:00,20.0,-99.9,-100.00,SW,221,8.0,-999.0,0,-99.99,,,-99.99,,2013-02-12 06:22:00,
2013-02-12 00:32:00,19.0,-99.9,-100.00,SSW,208,6.0,-999.0,0,-99.99,,,-99.99,,2013-02-12 06:32:00,
2013-02-12 00:42:00,19.0,-99.9,-100.00,SW,224,5.0,-999.0,0,-99.99,,,-99.99,,2013-02-12 06:42:00,
2013-02-12 00:52:00,20.0,-99.9,-100.00,SW,222,8.0,-999.0,0,-99.99,,,-99.99,,2013-02-12 06:52:00,
2013-02-12 01:02:00,20.0,-99.9,-100.00,SW,233,6.0,-999.0,0,-99.99,,,-99.99,,2013-02-12 07:02:00,
2013-02-12 01:12:00,20.0,-99.9,-100.00,West,263,5.0,-999.0,0,-99.99,,,-99.99,,2013-02-12 07:12:00,
2013-02-12 01:22:00,20.0,-99.9,-100.00,SW,236,4.0,-999.0,0,-99.99,,,-99.99,,2013-02-12 07:22:00,
2013-02-12 01:32:00,20.0,-99.9,-100.00,SW,229,6.0,-999.0,0,-99.99,,,-99.99,,2013-02-12 07:32:00,
2013-02-12 01:42:00,19.0,-99.9,-100.00,SW,224,10.0,-999.0,0,-99.99,,,-99.99,,2013-02-12 07:42:00,
2013-02-12 01:52:00,20.0,-99.9,-100.00,SW,230,10.0,-999.0,0,-99.99,,,-99.99,,2013-02-12 07:52:00,
2013-02-12 02:01:00,19.0,-99.9,-100.00,SW,220,11.0,-999.0,0,-99.99,,,-99.99,,2013-02-12 08:01:00,
2013-02-12 02:11:00,18.0,-99.9,-100.00,SW,219,10.0,-999.0,0,-99.99,,,-99.99,,2013-02-12 08:11:00,
2013-02-12 02:22:00,18.0,-99.9,-100.00,SW,219,12.0,-999.0,0,-99.99,,,-99.99,,2013-02-12 08:22:00,
2013-02-12 02:32:00,18.0,-99.9,-100.00,SW,216,9.0,-999.0,0,-99.99,,,-99.99,,2013-02-12 08:32:00,
2013-02-12 02:42:00,18.0,-99.9,-100.00,SSW,213,10.0,-999.0,0,-99.99,,,-99.99,,2013-02-12 08:42:00,
2013-02-12 02:52:00,18.0,-99.9,-100.00,SW,217,12.0,-999.0,0,-99.99,,,-99.99,,2013-02-12 08:52:00,
2013-02-12 03:02:00,18.0,-99.9,-100.00,SW,214,8.0,-999.0,0,-99.99,,,-99.99,,2013-02-12 09:02:00,
2013-02-12 03:12:00,17.0,-99.9,-100.00,SSW,212,6.0,-999.0,0,-99.99,,,-99.99,,2013-02-12 09:12:00,
2013-02-12 03:22:00,17.0,-99.9,-100.00,SSW,206,10.0,-999.0,0,-99.99,,,-99.99,,2013-02-12 09:22:00,
2013-02-12 03:32:00,17.0,-99.9,-100.00,SSW,206,9.0,-999.0,0,-99.99,,,-99.99,,2013-02-12 09:32:00,
2013-02-12 03:42:00,17.0,-99.9,-100.00,SSW,204,8.0,-999.0,0,-99.99,,,-99.99,,2013-02-12 09:42:00,
2013-02-12 03:52:00,17.0,-99.9,-100.00,SSW,204,8.0,-999.0,0,-99.99,,,-99.99,,2013-02-12 09:52:00,
2013-02-12 04:02:00,16.0,-99.9,-100.00,SSW,195,7.0,-999.0,0,-99.99,,,-99.99,,2013-02-12 10:02:00,
2013-02-12 04:11:00,16.0,-99.9,-100.00,SSW,195,9.0,-999.0,0,-99.99,,,-99.99,,2013-02-12 10:11:00,
2013-02-12 04:22:00,16.0,-99.9,-100.00,SW,215,9.0,-999.0,0,-99.99,,,-99.99,,2013-02-12 10:22:00,
2013-02-12 04:32:00,15.0,-99.9,-100.00,SSW,206,9.0,-999.0,0,-99.99,,,-99.99,,2013-02-12 10:32:00,
2013-02-12 04:43:00,15.0,-99.9,-100.00,SSW,200,12.0,-999.0,0,-99.99,,,-99.99,,2013-02-12 10:43:00,
2013-02-12 04:52:00,15.0,-99.9,-100.00,SSW,205,12.0,-999.0,0,-99.99,,,-99.99,,2013-02-12 10:52:00,
2013-02-12 05:02:00,15.0,-99.9,-100.00,SSW,203,9.0,-999.0,0,-99.99,,,-99.99,,2013-02-12 11:02:00,
2013-02-12 05:11:00,16.0,-99.9,-100.00,SSW,204,12.0,-999.0,0,-99.99,,,-99.99,,2013-02-12 11:11:00,
2013-02-12 05:22:00,15.0,-99.9,-100.00,SSW,201,10.0,-999.0,0,-99.99,,,-99.99,,2013-02-12 11:22:00,
2013-02-12 05:32:00,15.0,-99.9,-100.00,SSW,205,11.0,-999.0,0,-99.99,,,-99.99,,2013-02-12 11:32:00,
2013-02-12 05:42:00,16.0,-99.9,-100.00,SSW,206,11.0,-999.0,0,-99.99,,,-99.99,,2013-02-12 11:42:00,
2013-02-12 05:53:00,16.0,-99.9,-100.00,SSW,205,7.0,-999.0,0,-99.99,,,-99.99,,2013-02-12 11:53:00,
2013-02-12 06:02:00,16.0,-99.9,-100.00,SSW,205,7.0,-999.0,0,-99.99,,,-99.99,,2013-02-12 12:02:00,
2013-02-12 06:11:00,16.0,-99.9,-100.00,SSW,205,7.0,-999.0,0,-99.99,,,-99.99,,2013-02-12 12:11:00,
2013-02-12 06:22:00,16.0,-99.9,-100.00,SSW,212,10.0,-999.0,0,-99.99,,,-99.99,,2013-02-12 12:22:00,
2013-02-12 06:32:00,16.0,-99.9,-100.00,SSW,210,5.0,-999.0,0,-99.99,,,-99.99,,2013-02-12 12:32:00,
2013-02-12 06:42:00,16.0,-99.9,-100.00,SSW,196,5.0,-999.0,0,-99.99,,,-99.99,,2013-02-12 12:42:00,
2013-02-12 06:53:00,16.0,-99.9,-100.00,SSW,205,7.0,-999.0,0,-99.99,,,-99.99,,2013-02-12 12:53:00,
2013-02-12 07:02:00,16.0,-99.9,-100.00,SSW,202,4.0,-999.0,0,-99.99,,,-99.99,,2013-02-12 13:02:00,
2013-02-12 07:11:00,16.0,-99.9,-100.00,SSW,195,3.0,-999.0,0,-99.99,,,-99.99,,2013-02-12 13:11:00,
2013-02-12 07:22:00,16.0,-99.9,-100.00,SSW,209,4.0,-999.0,0,-99.99,,,-99.99,,2013-02-12 13:22:00,
2013-02-12 07:32:00,15.0,-99.9,-100.00,SSW,199,4.0,-999.0,0,-99.99,,,-99.99,,2013-02-12 13:32:00,
2013-02-12 07:42:00,15.0,-99.9,-100.00,SSW,208,5.0,-999.0,0,-99.99,,,-99.99,,2013-02-12 13:42:00,
2013-02-12 07:52:00,16.0,-99.9,-100.00,SSW,201,5.0,-999.0,0,-99.99,,,-99.99,,2013-02-12 13:52:00,
2013-02-12 08:01:00,15.0,-99.9,-100.00,SW,214,7.0,-999.0,0,-99.99,,,-99.99,,2013-02-12 14:01:00,
2013-02-12 08:12:00,16.0,-99.9,-100.00,SSW,195,9.0,-999.0,0,-99.99,,,-99.99,,2013-02-12 14:12:00,
2013-02-12 08:22:00,17.0,-99.9,-100.00,SSW,198,11.0,-999.0,0,-99.99,,,-99.99,,2013-02-12 14:22:00,
2013-02-12 08:32:00,17.0,-99.9,-100.00,South,178,4.0,-999.0,0,-99.99,,,-99.99,,2013-02-12 14:32:00,
2013-02-12 08:42:00,18.0,-99.9,-100.00,SSW,205,3.0,-999.0,0,-99.99,,,-99.99,,2013-02-12 14:42:00,
2013-02-12 08:52:00,19.0,-99.9,-100.00,SSW,205,8.0,-999.0,0,-99.99,,,-99.99,,2013-02-12 14:52:00,
2013-02-12 09:02:00,19.0,-99.9,-100.00,SSW,197,9.0,-999.0,0,-99.99,,,-99.99,,2013-02-12 15:02:00,
2013-02-12 09:11:00,19.0,-99.9,-100.00,SSW,202,7.0,-999.0,0,-99.99,,,-99.99,,2013-02-12 15:11:00,
2013-02-12 09:22:00,20.0,-99.9,-100.00,SSW,208,7.0,-999.0,0,-99.99,,,-99.99,,2013-02-12 15:22:00,
2013-02-12 09:32:00,20.0,-99.9,-100.00,SSW,196,8.0,-999.0,0,-99.99,,,-99.99,,2013-02-12 15:32:00,
2013-02-12 09:42:00,21.0,-99.9,-100.00,SSW,206,9.0,-999.0,0,-99.99,,,-99.99,,2013-02-12 15:42:00,
2013-02-12 09:52:00,21.0,-99.9,-100.00,SSW,205,12.0,-999.0,0,-99.99,,,-99.99,,2013-02-12 15:52:00,
2013-02-12 10:02:00,21.0,-99.9,-100.00,SSW,213,10.0,-999.0,0,-99.99,,,-99.99,,2013-02-12 16:02:00,
2013-02-12 10:11:00,21.0,-99.9,-100.00,SW,223,5.0,-999.0,0,-99.99,,,-99.99,,2013-02-12 16:11:00,
2013-02-12 10:22:00,22.0,-99.9,-100.00,SW,220,8.0,-999.0,0,-99.99,,,-99.99,,2013-02-12 16:22:00,
2013-02-12 10:32:00,22.0,-99.9,-100.00,SW,220,8.0,-999.0,0,-99.99,,,-99.99,,2013-02-12 16:32:00,
2013-02-12 10:42:00,23.0,-99.9,-100.00,SSW,211,10.0,-999.0,0,-99.99,,,-99.99,,2013-02-12 16:42:00,
2013-02-12 10:52:00,23.0,-99.9,-100.00,West,270,8.0,-999.0,0,-99.99,,,-99.99,,2013-02-12 16:52:00,
2013-02-12 11:01:00,23.0,-99.9,-100.00,West,270,8.0,-999.0,0,-99.99,,,-99.99,,2013-02-12 17:01:00,
2013-02-12 11:12:00,24.0,-99.9,-100.00,WSW,240,3.0,-999.0,0,-99.99,,,-99.99,,2013-02-12 17:12:00,
2013-02-12 11:22:00,23.0,-99.9,-100.00,West,260,11.0,-999.0,0,-99.99,,,-99.99,,2013-02-12 17:22:00,
2013-02-12 11:32:00,23.0,-99.9,-100.00,West,277,12.0,-999.0,0,-99.99,,,-99.99,,2013-02-12 17:32:00,
2013-02-12 11:42:00,24.0,-99.9,-100.00,West,271,8.0,-999.0,0,-99.99,,,-99.99,,2013-02-12 17:42:00,
2013-02-12 11:52:00,24.0,-99.9,-100.00,West,263,9.0,-999.0,0,-99.99,,,-99.99,,2013-02-12 17:52:00,
2013-02-12 12:02:00,24.0,-99.9,-100.00,West,262,11.0,-999.0,0,-99.99,,,-99.99,,2013-02-12 18:02:00,
2013-02-12 12:12:00,25.0,-99.9,-100.00,West,274,9.0,-999.0,0,-99.99,,,-99.99,,2013-02-12 18:12:00,
2013-02-12 12:23:00,26.0,-99.9,-100.00,WNW,285,6.0,-999.0,0,-99.99,,,-99.99,,2013-02-12 18:23:00,
2013-02-12 12:32:00,26.0,-99.9,-100.00,WNW,283,13.0,-999.0,0,-99.99,,,-99.99,,2013-02-12 18:32:00,
2013-02-12 12:42:00,26.0,-99.9,-100.00,WNW,283,13.0,-999.0,0,-99.99,,,-99.99,,2013-02-12 18:42:00,
2013-02-12 12:52:00,28.0,-99.9,-100.00,WNW,290,5.0,-999.0,0,-99.99,,,-99.99,,2013-02-12 18:52:00,
2013-02-12 13:02:00,28.0,-99.9,-100.00,WSW,237,9.0,-999.0,0,-99.99,,,-99.99,,2013-02-12 19:02:00,
2013-02-12 13:11:00,27.0,-99.9,-100.00,SW,223,8.0,-999.0,0,-99.99,,,-99.99,,2013-02-12 19:11:00,
2013-02-12 13:22:00,27.0,-99.9,-100.00,WSW,241,6.0,-999.0,0,-99.99,,,-99.99,,2013-02-12 19:22:00,
2013-02-12 13:32:00,28.0,-99.9,-100.00,SSW,213,7.0,-999.0,0,-99.99,,,-99.99,,2013-02-12 19:32:00,
2013-02-12 13:42:00,27.0,-99.9,-100.00,SW,234,7.0,-999.0,0,-99.99,,,-99.99,,2013-02-12 19:42:00,
2013-02-12 13:52:00,27.0,-99.9,-100.00,SW,226,5.0,-999.0,0,-99.99,,,-99.99,,2013-02-12 19:52:00,
2013-02-12 14:02:00,27.0,-99.9,-100.00,West,265,13.0,-999.0,0,-99.99,,,-99.99,,2013-02-12 20:02:00,
2013-02-12 14:11:00,27.0,-99.9,-100.00,West,260,12.0,-999.0,0,-99.99,,,-99.99,,2013-02-12 20:11:00,
2013-02-12 14:22:00,28.0,-99.9,-100.00,West,276,12.0,-999.0,0,-99.99,,,-99.99,,2013-02-12 20:22:00,
2013-02-12 14:32:00,28.0,-99.9,-100.00,West,276,12.0,-999.0,0,-99.99,,,-99.99,,2013-02-12 20:32:00,
2013-02-12 14:42:00,28.0,-99.9,-100.00,West,276,12.0,-999.0,0,-99.99,,,-99.99,,2013-02-12 20:42:00,
2013-02-12 14:52:00,28.0,-99.9,-100.00,West,273,10.0,-999.0,0,-99.99,,,-99.99,,2013-02-12 20:52:00,
2013-02-12 15:02:00,29.0,-99.9,-100.00,West,278,14.0,-999.0,0,-99.99,,,-99.99,,2013-02-12 21:02:00,
2013-02-12 15:11:00,29.0,-99.9,-100.00,WSW,237,13.0,-999.0,0,-99.99,,,-99.99,,2013-02-12 21:11:00,
2013-02-12 15:21:00,29.0,-99.9,-100.00,West,274,11.0,-999.0,0,-99.99,,,-99.99,,2013-02-12 21:21:00,
2013-02-12 15:32:00,29.0,-99.9,-100.00,WSW,239,5.0,-999.0,0,-99.99,,,-99.99,,2013-02-12 21:32:00,
2013-02-12 15:42:00,29.0,-99.9,-100.00,West,265,7.0,-999.0,0,-99.99,,,-99.99,,2013-02-12 21:42:00,
2013-02-12 15:52:00,30.0,-99.9,-100.00,West,279,9.0,-999.0,0,-99.99,,,-99.99,,2013-02-12 21:52:00,
2013-02-12 16:02:00,30.0,-99.9,-100.00,West,273,4.0,-999.0,0,-99.99,,,-99.99,,2013-02-12 22:02:00,
2013-02-12 16:12:00,30.0,-99.9,-100.00,WNW,298,5.0,-999.0,0,-99.99,,,-99.99,,2013-02-12 22:12:00,
2013-02-12 16:22:00,29.0,-99.9,-100.00,WNW,283,11.0,-999.0,0,-99.99,,,-99.99,,2013-02-12 22:22:00,
2013-02-12 16:32:00,29.0,-99.9,-100.00,NW,306,5.0,-999.0,0,-99.99,,,-99.99,,2013-02-12 22:32:00,
2013-02-12 16:42:00,29.0,-99.9,-100.00,WNW,295,8.0,-999.0,0,-99.99,,,-99.99,,2013-02-12 22:42:00,
2013-02-12 16:52:00,29.0,-99.9,-100.00,NW,307,5.0,-999.0,0,-99.99,,,-99.99,,2013-02-12 22:52:00,
2013-02-12 17:02:00,29.0,-99.9,-100.00,WNW,285,5.0,-999.0,0,-99.99,,,-99.99,,2013-02-12 23:02:00,
2013-02-12 17:12:00,29.0,-99.9,-100.00,West,276,6.0,-999.0,0,-99.99,,,-99.99,,2013-02-12 23:12:00,
2013-02-12 17:22:00,29.0,-99.9,-100.00,West,273,6.0,-999.0,0,-99.99,,,-99.99,,2013-02-12 23:22:00,
2013-02-12 17:32:00,28.0,-99.9,-100.00,NW,305,6.0,-999.0,0,-99.99,,,-99.99,,2013-02-12 23:32:00,
2013-02-12 17:42:00,28.0,-99.9,-100.00,West,280,6.0,-999.0,0,-99.99,,,-99.99,,2013-02-12 23:42:00,
2013-02-12 17:52:00,28.0,-99.9,-100.00,NW,306,5.0,-999.0,0,-99.99,,,-99.99,,2013-02-12 23:52:00,
2013-02-12 18:02:00,27.0,-99.9,-100.00,WNW,284,5.0,-999.0,0,-99.99,,,-99.99,,2013-02-13 00:02:00,
2013-02-12 18:11:00,26.0,-99.9,-100.00,WSW,240,4.0,-999.0,0,-99.99,,,-99.99,,2013-02-13 00:11:00,
2013-02-12 18:22:00,25.0,-99.9,-100.00,WNW,293,5.0,-999.0,0,-99.99,,,-99.99,,2013-02-13 00:22:00,
2013-02-12 18:32:00,26.0,-99.9,-100.00,WNW,286,7.0,-999.0,0,-99.99,,,-99.99,,2013-02-13 00:32:00,
2013-02-12 18:42:00,26.0,-99.9,-100.00,West,274,6.0,-999.0,0,-99.99,,,-99.99,,2013-02-13 00:42:00,
2013-02-12 18:52:00,25.0,-99.9,-100.00,WSW,256,10.0,-999.0,0,-99.99,,,-99.99,,2013-02-13 00:52:00,
2013-02-12 19:01:00,25.0,-99.9,-100.00,SW,226,5.0,-999.0,0,-99.99,,,-99.99,,2013-02-13 01:01:00,
2013-02-12 19:11:00,24.0,-99.9,-100.00,West,274,7.0,-999.0,0,-99.99,,,-99.99,,2013-02-13 01:11:00,
2013-02-12 19:22:00,24.0,-99.9,-100.00,WSW,254,6.0,-999.0,0,-99.99,,,-99.99,,2013-02-13 01:22:00,
2013-02-12 19:32:00,24.0,-99.9,-100.00,West,276,13.0,-999.0,0,-99.99,,,-99.99,,2013-02-13 01:32:00,
2013-02-12 19:42:00,24.0,-99.9,-100.00,WNW,285,11.0,-999.0,0,-99.99,,,-99.99,,2013-02-13 01:42:00,
2013-02-12 19:52:00,25.0,-99.9,-100.00,WNW,287,5.0,-999.0,0,-99.99,,,-99.99,,2013-02-13 01:52:00,
2013-02-12 20:01:00,25.0,-99.9,-100.00,WNW,287,5.0,-999.0,0,-99.99,,,-99.99,,2013-02-13 02:01:00,
2013-02-12 20:11:00,24.0,-99.9,-100.00,WNW,292,3.0,-999.0,0,-99.99,,,-99.99,,2013-02-13 02:11:00,
2013-02-12 20:22:00,24.0,-99.9,-100.00,West,276,10.0,-999.0,0,-99.99,,,-99.99,,2013-02-13 02:22:00,
2013-02-12 20:32:00,23.0,-99.9,-100.00,WNW,291,8.0,-999.0,0,-99.99,,,-99.99,,2013-02-13 02:32:00,
2013-02-12 20:42:00,24.0,-99.9,-100.00,WNW,291,6.0,-999.0,0,-99.99,,,-99.99,,2013-02-13 02:42:00,
2013-02-12 20:52:00,23.0,-99.9,-100.00,WNW,296,11.0,-999.0,0,-99.99,,,-99.99,,2013-02-13 02:52:00,
2013-02-12 21:02:00,24.0,-99.9,-100.00,WNW,295,11.0,-999.0,0,-99.99,,,-99.99,,2013-02-13 03:02:00,
2013-02-12 21:12:00,24.0,-99.9,-100.00,WNW,300,7.0,-999.0,0,-99.99,,,-99.99,,2013-02-13 03:12:00,
2013-02-12 21:22:00,24.0,-99.9,-100.00,WNW,282,9.0,-999.0,0,-99.99,,,-99.99,,2013-02-13 03:22:00,
2013-02-12 21:32:00,23.0,-99.9,-100.00,West,275,12.0,-999.0,0,-99.99,,,-99.99,,2013-02-13 03:32:00,
2013-02-12 21:42:00,23.0,-99.9,-100.00,West,280,12.0,-999.0,0,-99.99,,,-99.99,,2013-02-13 03:42:00,
2013-02-12 21:52:00,23.0,-99.9,-100.00,WNW,284,7.0,-999.0,0,-99.99,,,-99.99,,2013-02-13 03:52:00,
2013-02-12 22:01:00,23.0,-99.9,-100.00,NW,310,5.0,-999.0,0,-99.99,,,-99.99,,2013-02-13 04:01:00,
2013-02-12 22:11:00,22.0,-99.9,-100.00,WNW,301,8.0,-999.0,0,-99.99,,,-99.99,,2013-02-13 04:11:00,
2013-02-12 22:22:00,22.0,-99.9,-100.00,NW,318,10.0,-999.0,0,-99.99,,,-99.99,,2013-02-13 04:22:00,
2013-02-12 22:32:00,21.0,-99.9,-100.00,NW,318,6.0,-999.0,0,-99.99,,,-99.99,,2013-02-13 04:32:00,
2013-02-12 22:42:00,20.0,-99.9,-100.00,NW,312,6.0,-999.0,0,-99.99,,,-99.99,,2013-02-13 04:42:00,
2013-02-12 22:52:00,20.0,-99.9,-100.00,WNW,288,5.0,-999.0,0,-99.99,,,-99.99,,2013-02-13 04:52:00,
2013-02-12 23:02:00,22.0,-99.9,-100.00,WNW,287,6.0,-999.0,0,-99.99,,,-99.99,,2013-02-13 05:02:00,
2013-02-12 23:12:00,22.0,-99.9,-100.00,WNW,293,8.0,-999.0,0,-99.99,,,-99.99,,2013-02-13 05:12:00,
2013-02-12 23:22:00,21.0,-99.9,-100.00,WNW,294,6.0,-999.0,0,-99.99,,,-99.99,,2013-02-13 05:22:00,
2013-02-12 23:32:00,21.0,-99.9,-100.00,NW,310,7.0,-999.0,0,-99.99,,,-99.99,,2013-02-13 05:32:00,
2013-02-12 23:42:00,22.0,-99.9,-100.00,NW,316,8.0,-999.0,0,-99.99,,,-99.99,,2013-02-13 05:42:00,
2013-02-12 23:52:00,22.0,-99.9,-100.00,NW,311,7.0,-999.0,0,-99.99,,,-99.99,,2013-02-13 05:52:00,